logo tempoitalia

Diretta Meteo Prince George B C, Canadadomenica 30 agosto ore 22:00

Mappa
Sereno 13 °C Coperto 24 Ore: T.min 11 T.max 19
Ponente Sud Km/h 18.5 Punto di rugiada: 12 °C Umidità: 93% Visibilità: 14 Km
Il sole sorge alle: 06:16 Il sole tramonta alle: 20:06
30 Agosto 2026 22:00 tempo osservato: Coperto Coperto 13 93 1013 vento: Nord S 18.5
30 Agosto 2026 21:00 tempo osservato: Poco Nuvoloso Poco Nuvoloso 14 87 1014 vento: Nord S 13
30 Agosto 2026 20:00 tempo osservato: Coperto Coperto 15 82 1012 vento: Nord S 16.7
30 Agosto 2026 19:00 tempo osservato: Sereno Sereno 16 72 1012 vento: Nord S/SO 18.5
30 Agosto 2026 18:27 tempo osservato: Molto Nuvoloso Molto Nuvoloso 17 72 1012 vento: Nord S 16.7
30 Agosto 2026 18:06 tempo osservato: Pioggia Pioggia 17 67 1012 vento: Nord S 22.2
30 Agosto 2026 18:00 tempo osservato: Molto Nuvoloso Molto Nuvoloso 17 67 1012 vento: Nord S 16.7
30 Agosto 2026 17:00 tempo osservato: Poco Nuvoloso Poco Nuvoloso 19 55 1012 vento: Nord SO 16.7
30 Agosto 2026 16:00 tempo osservato: Molto Nuvoloso Molto Nuvoloso 18 67 1012 vento: Nord S/SO 14.8
30 Agosto 2026 15:00 tempo osservato: Molto Nuvoloso Molto Nuvoloso 16 77 1012 vento: Nord S 18.5
30 Agosto 2026 14:07 tempo osservato: Nuvoloso Nuvoloso 15 82 1012 vento: Nord S/SE 9.3
30 Agosto 2026 14:00 tempo osservato: Pioggia Pioggia 15 82 1012 vento: Nord S 9.3
30 Agosto 2026 13:53 tempo osservato: Pioggia Pioggia 14 82 1012 vento: Nord S 14.8
30 Agosto 2026 13:49 tempo osservato: Pioggia Pioggia 14 76 1012 vento: Nord S 14.8
30 Agosto 2026 13:40 tempo osservato: Pioggia Pioggia 15 72 1012 vento: Nord SO 11.1
30 Agosto 2026 13:38 tempo osservato: Pioggia Pioggia 15 72 1012 vento: Nord SO 13
30 Agosto 2026 13:00 tempo osservato: Coperto Coperto 15 87 1012 vento: Nord S/SO 14.8
30 Agosto 2026 12:51 tempo osservato: Coperto Coperto 15 87 1012 vento: Nord SO 14.8
30 Agosto 2026 12:48 tempo osservato: Pioggia Pioggia 14 93 1012 vento: Nord SO 11.1
30 Agosto 2026 12:40 tempo osservato: Pioggia Foschia Pioggia Foschia 13 93 1012 vento: Nord N 3.7
30 Agosto 2026 12:22 tempo osservato: Pioggia Foschia Pioggia Foschia 14 87 1012 vento: Nord S/SO 14.8
30 Agosto 2026 12:05 tempo osservato: Pioggia Pioggia 13 93 1012 vento: Nord S 14.8
30 Agosto 2026 12:01 tempo osservato: Pioggia Pioggia 13 93 1012 vento: Nord S 18.5
30 Agosto 2026 12:00 tempo osservato: Pioggia Pioggia 13 93 1012 vento: Nord S 18.5
30 Agosto 2026 11:44 tempo osservato: Molto Nuvoloso Molto Nuvoloso 13 100 1012 vento: Nord S 16.7
30 Agosto 2026 11:26 tempo osservato: Pioggia Pioggia 13 93 1012 vento: Nord S 18.5
30 Agosto 2026 11:08 tempo osservato: Coperto Coperto 12 100 1012 vento: Nord S 18.5
30 Agosto 2026 11:00 tempo osservato: Coperto Coperto 13 93 1012 vento: Nord S 16.7
30 Agosto 2026 10:12 tempo osservato: Coperto Coperto 12 100 1012 vento: Nord S 14.8
30 Agosto 2026 10:00 tempo osservato: Coperto Coperto 12 100 1012 vento: Nord S 16.7
30 Agosto 2026 09:52 tempo osservato: Coperto Coperto 12 100 1012 vento: Nord S 16.7
30 Agosto 2026 09:45 tempo osservato: Pioggia Pioggia 12 100 1012 vento: Nord S 16.7
30 Agosto 2026 09:22 tempo osservato: Pioggia Pioggia 12 100 1012 vento: Nord S 13
30 Agosto 2026 09:15 tempo osservato: Coperto Coperto 12 100 1012 vento: Nord S 13
30 Agosto 2026 09:00 tempo osservato: Pioggia Pioggia 12 100 1012 vento: Nord S 14.8
30 Agosto 2026 08:00 tempo osservato: Pioggia Pioggia 11 100 1012 vento: Nord S 13
30 Agosto 2026 07:55 tempo osservato: Pioggia Pioggia 11 100 1012 vento: Nord S 13
30 Agosto 2026 07:20 tempo osservato: Pioggia Pioggia 11 100 1012 vento: Nord S 14.8
30 Agosto 2026 07:06 tempo osservato: Pioggia Pioggia 11 100 1012 vento: Nord S 13
30 Agosto 2026 07:00 tempo osservato: Pioggia Pioggia 11 100 1012 vento: Nord S 13
30 Agosto 2026 06:49 tempo osservato: Pioggia Pioggia 11 100 1012 vento: Nord S 9.3
30 Agosto 2026 06:25 tempo osservato: Pioggia Foschia Pioggia Foschia 11 100 1011 vento: Nord S 13
30 Agosto 2026 06:19 tempo osservato: Pioggia Foschia Pioggia Foschia 11 100 1011 vento: Nord S 13
30 Agosto 2026 06:08 tempo osservato: Pioggia Pioggia 11 100 1011 vento: Nord S 13
30 Agosto 2026 06:00 tempo osservato: Pioggia Pioggia 11 100 1011 vento: Nord S 13
30 Agosto 2026 05:50 tempo osservato: Pioggia Pioggia 11 100 1011 vento: Nord S 14.8
30 Agosto 2026 05:34 tempo osservato: Coperto Coperto 11 100 1011 vento: Nord S 14.8
30 Agosto 2026 05:19 tempo osservato: Coperto Coperto 11 100 1011 vento: Nord S 13
30 Agosto 2026 05:00 tempo osservato: Coperto Coperto 11 100 1011 vento: Nord S/SE 13
30 Agosto 2026 04:45 tempo osservato: Coperto Coperto 11 100 1011 vento: Nord S 11.1
30 Agosto 2026 04:31 tempo osservato: Coperto Coperto 11 100 1011 vento: Nord S 11.1
30 Agosto 2026 04:09 tempo osservato: Pioggia Pioggia 11 100 1011 vento: Nord S 11.1
30 Agosto 2026 04:00 tempo osservato: Coperto Coperto 11 100 1011 vento: Nord S 11.1
30 Agosto 2026 03:00 tempo osservato: Pioggia Pioggia 12 93 1011 vento: Nord S 11.1
30 Agosto 2026 02:52 tempo osservato: Coperto Coperto 12 93 1011 vento: Nord S 11.1
30 Agosto 2026 02:17 tempo osservato: Pioggia Pioggia 12 87 1011 vento: Nord S 11.1
30 Agosto 2026 02:00 tempo osservato: Coperto Coperto 12 87 1011 vento: Nord S 7.4
30 Agosto 2026 01:00 tempo osservato: Coperto Coperto 12 93 1011 vento: Nord S 7.4
30 Agosto 2026 00:29 tempo osservato: Coperto Coperto 12 87 1011 vento: Nord S 13
30 Agosto 2026 00:05 tempo osservato: Pioggia Foschia Pioggia Foschia 12 87 1011 vento: Nord S/SE 9.3
30 Agosto 2026 00:00 tempo osservato: Coperto Coperto 12 87 1011 vento: Nord N 3.7
29 Agosto 2026 23:00 tempo osservato: Coperto Coperto 12 87 1011 vento: Nord S 9.3
29 Agosto 2026 22:55 tempo osservato: Coperto Coperto 12 87 1011 vento: Nord S 9.3